Weather History for Plattsmouth, NE

Change the Weather History Date:

Wednesday, December 5, 2012

  Actual Average (KOFF) Record (KOFF)
Temperature  
Mean Temperature 46 °F -  
Max Temperature 59 °F 40 °F 64 °F (2001)
Min Temperature 33 °F 23 °F 0 °F (2005)
Degree Days  
Heating Degree Days 19    
Moisture  
Dew Point 26 °F    
Average Humidity 50    
Maximum Humidity 74    
Minimum Humidity 22    
Precipitation  
Precipitation 0.00 in - - ()
Sea Level Pressure  
Sea Level Pressure 30.12 in    
Wind  
Wind Speed 11 mph (SE)    
Max Wind Speed 24 mph    
Max Gust Speed 37 mph    
Visibility 10 miles    
Events      
Averages and records for this station are not official NWS values.
T = Trace of Precipitation, MM = Missing Value Source: NWS Daily Summary

Daily Weather History Graph

Daily Weather History Graph

Search for Another Location

Airport:

Trip Planner

Search our weather history database for the weather conditions in past years. The results will help you decide how hot, cold, wet, or windy it might be!

Date:

Astronomy

Dec. 05, 2012 Rise Set
Actual Time 7:33 AM CST 4:55 PM CST
Civil Twilight 7:02 AM CST 5:26 PM CST
Nautical Twilight 6:28 AM CST 6:00 PM CST
Astronomical Twilight 5:55 AM CST 6:33 PM CST
Moon 11:48 PM CST (12/5) 11:55 AM CST (12/5)
Length of Visible Light 10h 23m
Length of Day
9h 22m
Waning Gibbous, 59% of the Moon is Illuminated
Dec 5
Waning Gibbous
Dec 6
Last Quarter
Dec 13
New
Dec 19
First Quarter
Dec 28
Full

Hourly Weather History & Observations

Time (CST) Temp. Windchill Dew Point Humidity Pressure Visibility Wind Dir Wind Speed Gust Speed Precip Events Conditions
12:15 AM 39.4 °F 36.1 °F 24.8 °F 56% 30.29 in 10.0 mi ESE 4.6 mph - N/A   Clear
12:35 AM 37.9 °F 32.7 °F 24.8 °F 59% 30.29 in 10.0 mi ESE 6.9 mph - N/A   Clear
12:55 AM 38.1 °F 32.9 °F 24.6 °F 58% 30.29 in 10.0 mi East 6.9 mph - N/A   Clear
1:15 AM 37.9 °F 32.7 °F 24.8 °F 59% 30.30 in 10.0 mi East 6.9 mph - N/A   Clear
1:55 AM 36.3 °F 29.5 °F 25.0 °F 63% 30.30 in 10.0 mi East 9.2 mph - N/A   Clear
2:15 AM 36.9 °F 30.1 °F 25.3 °F 63% 30.30 in 10.0 mi East 9.2 mph - N/A   Clear
2:35 AM 36.1 °F 29.9 °F 25.5 °F 65% 30.31 in 10.0 mi ESE 8.1 mph - N/A   Clear
2:55 AM 34.9 °F 28.3 °F 25.5 °F 69% 30.31 in 10.0 mi ESE 8.1 mph - N/A   Clear
3:15 AM 35.8 °F 28.3 °F 26.2 °F 68% 30.30 in 10.0 mi ESE 10.4 mph - N/A   Clear
3:35 AM 36.5 °F 28.7 °F 26.6 °F 67% 30.30 in 10.0 mi ESE 11.5 mph - N/A   Clear
3:55 AM 36.3 °F 28.4 °F 26.6 °F 68% 30.29 in 10.0 mi ESE 11.5 mph - N/A   Clear
4:15 AM 35.6 °F 27.5 °F 26.6 °F 70% 30.28 in 10.0 mi ESE 11.5 mph - N/A   Clear
4:35 AM 35.2 °F 27.6 °F 26.4 °F 70% 30.29 in 10.0 mi ESE 10.4 mph - N/A   Clear
4:55 AM 34.9 °F 27.1 °F 26.4 °F 71% 30.29 in 10.0 mi ESE 10.4 mph - N/A   Clear
5:15 AM 34.7 °F 27.5 °F 26.4 °F 72% 30.28 in 10.0 mi ESE 9.2 mph - N/A   Clear
5:35 AM 33.8 °F 27.0 °F 26.4 °F 74% 30.28 in 10.0 mi SE 8.1 mph - N/A   Clear
5:55 AM 34.3 °F 26.5 °F 26.6 °F 73% 30.26 in 10.0 mi ESE 10.4 mph 16.1 mph N/A   Clear
6:15 AM 34.7 °F 25.9 °F 26.6 °F 72% 30.26 in 10.0 mi SE 12.7 mph 16.1 mph N/A   Clear
6:35 AM 34.7 °F 26.9 °F 26.6 °F 72% 30.25 in 10.0 mi SE 10.4 mph - N/A   Clear
6:55 AM 34.0 °F 26.6 °F 26.6 °F 74% 30.25 in 10.0 mi ESE 9.2 mph - N/A   Clear
8:35 AM 35.1 °F 26.4 °F 27.1 °F 73% 30.24 in 10.0 mi SE 12.7 mph - N/A   Clear
8:55 AM 35.6 °F 27.5 °F 27.5 °F 72% 30.25 in 10.0 mi SE 11.5 mph - N/A   Clear
9:15 AM 36.0 °F 28.0 °F 27.5 °F 71% 30.24 in 10.0 mi SE 11.5 mph - N/A   Clear
9:35 AM 36.9 °F 29.1 °F 27.9 °F 70% 30.24 in 10.0 mi SE 11.5 mph 17.3 mph N/A   Clear
9:55 AM 37.8 °F 29.0 °F 28.0 °F 68% 30.23 in 10.0 mi SE 15.0 mph - N/A   Clear
10:15 AM 39.2 °F 31.2 °F 28.2 °F 65% 30.23 in 10.0 mi SE 13.8 mph - N/A   Clear
10:35 AM 40.1 °F 32.7 °F 28.2 °F 63% 30.22 in 10.0 mi SE 12.7 mph - N/A   Clear
10:55 AM 41.9 °F 34.6 °F 28.4 °F 59% 30.21 in 10.0 mi SE 13.8 mph - N/A   Clear
11:15 AM 42.8 °F 36.6 °F 28.2 °F 56% 30.21 in 10.0 mi SSE 11.5 mph 18.4 mph N/A   Clear
11:35 AM 44.1 °F 37.1 °F 28.0 °F 53% 30.19 in 10.0 mi SSE 15.0 mph - N/A   Clear
11:55 AM 44.6 °F 38.4 °F 28.4 °F 53% 30.16 in 10.0 mi SSE 12.7 mph - N/A   Clear
12:15 PM 46.4 °F 41.5 °F 28.8 °F 50% 30.15 in 10.0 mi SSE 10.4 mph - N/A   Clear
12:35 PM 47.7 °F - 29.1 °F 49% 30.13 in 10.0 mi SSE 10.4 mph - N/A   Clear
12:55 PM 50.0 °F - 29.7 °F 46% 30.11 in 10.0 mi SE 11.5 mph - N/A   Clear
1:15 PM 51.3 °F - 29.7 °F 44% 30.09 in 10.0 mi SSE 11.5 mph - N/A   Clear
1:35 PM 52.0 °F - 29.7 °F 42% 30.08 in 10.0 mi SSE 11.5 mph - N/A   Clear
1:55 PM 52.2 °F - 30.6 °F 44% 30.07 in 10.0 mi SE 10.4 mph - N/A   Clear
2:15 PM 53.1 °F - 31.1 °F 43% 30.05 in 10.0 mi SE 10.4 mph - N/A   Clear
2:35 PM 55.4 °F - 28.9 °F 36% 30.04 in 10.0 mi SSE 9.2 mph - N/A   Clear
2:55 PM 59.4 °F - 21.4 °F 23% 30.03 in 10.0 mi South 24.2 mph 36.8 mph N/A   Clear
3:15 PM 59.4 °F - 21.9 °F 24% 30.02 in 10.0 mi South 17.3 mph 26.5 mph N/A   Clear
3:35 PM 59.9 °F - 21.2 °F 22% 30.02 in 10.0 mi South 21.9 mph 27.6 mph N/A   Clear
3:55 PM 58.6 °F - 20.1 °F 22% 30.01 in 10.0 mi SSE 17.3 mph 28.8 mph N/A   Clear
4:15 PM 57.7 °F - 21.4 °F 24% 30.01 in 10.0 mi SSE 16.1 mph 21.9 mph N/A   Clear
4:35 PM 56.7 °F - 22.6 °F 27% 30.00 in 10.0 mi SSE 12.7 mph - N/A   Clear
4:55 PM 55.8 °F - 23.0 °F 28% 30.00 in 10.0 mi SSE 13.8 mph 20.7 mph N/A   Clear
5:15 PM 55.0 °F - 22.8 °F 29% 29.99 in 10.0 mi SSE 17.3 mph 21.9 mph N/A   Clear
5:35 PM 54.5 °F - 23.0 °F 29% 29.98 in 10.0 mi SSE 13.8 mph 18.4 mph N/A   Clear
5:55 PM 54.7 °F - 23.0 °F 29% 29.98 in 10.0 mi SSE 17.3 mph 23.0 mph N/A   Clear
6:15 PM 53.6 °F - 23.0 °F 30% 29.97 in 10.0 mi SSE 15.0 mph - N/A   Clear
6:35 PM 53.2 °F - 23.0 °F 31% 29.97 in 10.0 mi SSE 15.0 mph 21.9 mph N/A   Clear
6:55 PM 52.7 °F - 23.2 °F 32% 29.96 in 10.0 mi SSE 18.4 mph 25.3 mph N/A   Clear
7:15 PM 52.0 °F - 23.7 °F 33% 29.97 in 10.0 mi SSE 17.3 mph - N/A   Clear
7:35 PM 51.6 °F - 23.9 °F 34% 29.96 in 10.0 mi SSE 18.4 mph 24.2 mph N/A   Clear
7:55 PM 51.8 °F - 24.6 °F 35% 29.96 in 10.0 mi SSE 19.6 mph 25.3 mph N/A   Clear
8:15 PM 51.4 °F - 24.8 °F 35% 29.95 in 10.0 mi SSE 18.4 mph 26.5 mph N/A   Clear
8:35 PM 50.2 °F - 25.5 °F 38% 29.95 in 10.0 mi SSE 13.8 mph 19.6 mph N/A   Clear
8:55 PM 50.7 °F - 25.7 °F 38% 29.94 in 10.0 mi SSE 19.6 mph 24.2 mph N/A   Clear
9:15 PM 50.7 °F - 26.1 °F 38% 29.94 in 10.0 mi SSE 18.4 mph 26.5 mph N/A   Clear
9:35 PM 50.7 °F - 26.2 °F 39% 29.94 in 10.0 mi South 19.6 mph 27.6 mph N/A   Clear
9:55 PM 50.5 °F - 26.6 °F 39% 29.94 in 10.0 mi South 18.4 mph 27.6 mph N/A   Clear
10:15 PM 49.8 °F - 27.1 °F 41% 29.94 in 10.0 mi South 17.3 mph 23.0 mph N/A   Clear
10:35 PM 49.3 °F - 27.5 °F 43% 29.94 in 10.0 mi South 16.1 mph 21.9 mph N/A   Clear
10:55 PM 49.1 °F - 27.9 °F 44% 29.94 in 10.0 mi South 18.4 mph 21.9 mph N/A   Clear
11:15 PM 48.6 °F - 28.0 °F 45% 29.95 in 10.0 mi South 16.1 mph 20.7 mph N/A   Clear
11:35 PM 48.2 °F - 28.2 °F 46% 29.95 in 10.0 mi SSE 13.8 mph - N/A   Mostly Cloudy
11:55 PM 47.7 °F - 28.4 °F 47% 29.94 in 10.0 mi SSE 12.7 mph 18.4 mph N/A   Mostly Cloudy